Marc Fuchs

Ojeador - VfL Wolfsburg
3 Dic 2028
Domingo
Continuar

Personalidad

Adaptabilidad (15) Ambición (14) Controversia (14) Lealtad (9) Presión (15) Profesionalismo (13) Deportividad (1) Temperamento (20)

Perfil

Estilo de dirección Democrático
Licencia Continental Pro
Determinación 13
Gestión de personas 8
Motivación 7
Disciplina 13
Satisfacción laboral
100%
Fatiga
0%
Cargo Ojeador
Salario 98.1K p/s
Contrato 14.03.2029

Rendimiento

Comportamiento Bueno
Efectividad del entrenamiento
58%
Desarrollo de jugadores
70%
Prevención de lesiones
30%
Implementación táctica
70%

Eventos recientes

Asistió a una reunión de captación ahora
Recomendó un objetivo de fichaje ahora
Evaluó a un jugador ahora
Evaluó a un jugador 7d atrás
Evaluó a un jugador 7d atrás
Observó un partido 7d atrás
Evaluó a un jugador 7d atrás
Evaluó a un jugador 7d atrás

Actualmente siguiendo

113
Jugador Club Estado Habilidad Confianza Observado Última observación Último voto
Álvaro Montoro Botafogo Activo 135 / 138 40% 7 01.12.2028 -
Estêvão Portsmouth Activo 157 / 154 40% 2 01.12.2028 -
Harry Gray Harrogate Town Activo 131 / 138 40% 1 01.12.2028 -
Luis Otávio Orlando City Activo 107 / 126 40% 3 28.11.2028 -
Babis Kostoulas Oxford United Activo 146 / 155 40% 2 28.11.2028 -
Honest Ahanor Atalanta Activo 146 / 144 40% 13 26.11.2028 -
Matías Arias Vélez Activo 115 / 122 40% 4 26.11.2028 -
Ayyoub Bouaddi Stoke City Activo 152 / 157 40% 2 26.11.2028 -
Lucca São Paulo Activo 119 / 122 40% 3 24.11.2028 -
Sebastian Rodriguez Houston Dynamo Activo 114 / 124 40% 2 24.11.2028 -
Mikey Moore Stockport County Activo 147 / 146 40% 1 24.11.2028 -
Olivier Mambwa Young Boys Activo 112 / 122 40% 8 23.11.2028 -
Lisandro Piñero Banfield Activo 126 / 124 40% 3 22.11.2028 -
Rio Ngumoha Plymouth Argyle Activo 146 / 148 40% 2 22.11.2028 -
Jacob Peter Hödl Sturm Graz Activo 123 / 126 40% 1 22.11.2028 -
Aarón Ochoa Málaga Activo 126 / 133 40% 2 19.11.2028 -
Santiago Segovia Rosario Central Activo 109 / 121 40% 1 19.11.2028 -
Franco Mastantuono Córdoba Activo 151 / 152 40% 1 18.11.2028 -
Mihajlo Cvetković Club Brugge Activo 130 / 134 40% 1 18.11.2028 -
Lennart Karl TSG Hoffenheim Activo 138 / 154 40% 1 15.11.2028 -
Celías Ingenthron Platense Activo 112 / 130 40% 3 13.11.2028 -
Valentino Huertas Morón Activo 102 / 109 40% 1 13.11.2028 -
Ethan Nwaneri Arsenal Activo 159 / 160 40% 1 12.11.2028 -
Geovany Quenda Watford Activo 149 / 156 40% 1 09.11.2028 -
Joris Boguo Wolfsberger AC Activo 104 / 110 40% 1 07.11.2028 -
Ibrahim Mbaye Queens Park Rangers Activo 147 / 144 40% 3 06.11.2028 -
Tahiel Peralta Racing Club Activo 108 / 116 40% 1 06.11.2028 -
Johannes Moser Sturm Graz Activo 107 / 119 40% 1 06.11.2028 -
Peyton Miller New England Revolution Activo 107 / 119 40% 1 06.10.2028 -
Ryunosuke Sato Eibar Activo 133 / 138 40% 1 04.10.2028 -
Matias Siltanen Malmo FF Activo 131 / 133 40% 3 02.10.2028 -
Ramazan Bağdat Kairat Activo 106 / 112 40% 1 02.10.2028 -
Facundo Krüger Temperley Activo 117 / 113 40% 1 28.08.2028 -
Endrick Boca Juniors Activo 164 / 162 40% 1 28.08.2028 -
Thomas Schlupp BA All Stars Activo 114 / 109 40% 1 28.08.2028 -
Mathias Honsak Heidenheim Perdido 135 / 134 76% 1 21.08.2028 Aprobar
Adam Hložek TSG Hoffenheim Perdido 146 / 145 76% 1 14.08.2028 Aprobar
Trey Nyoni Rotherham United Activo 142 / 151 40% 6 08.08.2028 -
Shea Lacey Crystal Palace Activo 143 / 141 40% 2 08.08.2028 -
Ryan McAidoo Oldham Athletic Activo 133 / 132 40% 2 08.08.2028 -
Arnaud Kalimuendo Nottingham Forest Activo 150 / 153 40% 1 05.07.2028 -
Brandon Thomas-Asante Blackpool Activo 125 / 128 40% 1 05.07.2028 -
Iliman N'Diaye Everton Activo 161 / 162 40% 2 04.07.2028 -
Ez Abde Betis Activo 157 / 156 40% 1 04.07.2028 -
William Osula Wrexham Activo 143 / 136 40% 1 03.07.2028 -
Christopher Nkunku AC Milan Activo 168 / 162 40% 1 03.07.2028 -
Isaac Romero Sevilla Perdido 149 / 142 40% 1 26.06.2028 -
Yousef Salech Cardiff City Perdido 138 / 131 40% 1 26.06.2028 -
Rayan Hamburger SV Activo 140 / 153 40% 1 18.06.2028 -
Saïd El Mala Köln Activo 148 / 153 76% 1 03.06.2028 Aprobar
Tyler Fletcher Rotherham United Activo 113 / 116 40% 3 31.05.2028 -
Kerim Alajbegović Modena Activo 138 / 137 40% 1 31.05.2028 -
Ben Broggio Mansfield Town Activo 114 / 120 40% 1 31.05.2028 -
Daniel Banjaqui Benfica Activo 119 / 126 40% 11 29.05.2028 -
Jorge Salinas Racing Santander Activo 136 / 139 40% 8 29.05.2028 -
Christos Mouzakitis Hull City Activo 132 / 141 40% 3 28.05.2028 -
Giovanni Leoni Lincoln City Activo 142 / 141 40% 7 27.05.2028 -
Héctor Fort Real Sociedad Activo 147 / 142 40% 4 25.05.2028 -
Jan Bürger Northampton Town Activo 125 / 128 40% 2 25.05.2028 -
Josh Nichols Oldham Athletic Activo 123 / 122 40% 7 23.05.2028 -
Givairo Read Feyenoord Activo 152 / 156 40% 6 22.05.2028 -
Martim Cunha Porto Activo 109 / 110 40% 6 22.05.2028 -
Marc Bernal Sevilla Activo 151 / 156 40% 6 20.05.2028 -
Riquelme Thompson-Jones Accrington Stanley Activo 107 / 115 40% 5 20.05.2028 -
Andrija Bulatović Chamois Niortais Activo 129 / 132 40% 4 19.05.2028 -
Pau Cubarsí Real Sociedad Activo 161 / 167 40% 11 18.05.2028 -
Bernardo Lima Porto Activo 109 / 115 40% 4 18.05.2028 -
Ayden Heaven Portsmouth Activo 147 / 150 40% 7 18.05.2028 -
Jorthy Mokio ADO Den Haag Activo 130 / 137 40% 6 06.05.2028 -
Josh Acheampong Everton Activo 137 / 145 40% 3 06.04.2028 -
Izan Merino Málaga Activo 125 / 131 40% 2 05.04.2028 -
Prosper Peter Olympique Lyonnais Activo 111 / 123 40% 1 29.06.2027 -
Finn Azaz Southampton Activo 130 / 132 40% 1 18.05.2027 -
Georges Mikautadze Villarreal Activo 152 / 151 40% 1 18.05.2027 -
Joe Gelhardt Hull City Activo 138 / 137 40% 1 18.05.2027 -
Manu Koné AS Roma Activo 167 / 164 40% 2 15.05.2027 -
Chemsdine Talbi Sunderland Activo 147 / 141 40% 2 13.05.2027 -
Roberto Fernández Braga Activo 150 / 142 40% 6 11.05.2027 -
Kevin Fulham Activo 146 / 150 40% 2 09.05.2027 -
Aimar Osasuna Activo 148 / 148 40% 1 09.05.2027 -
Pablo Torre Mallorca Activo 140 / 146 40% 1 08.05.2027 -
Jonathan Dubasin Osasuna Activo 138 / 141 40% 1 08.05.2027 -
David Larrubia Málaga Activo 139 / 133 40% 1 02.05.2027 -
Savinho Tottenham Activo 153 / 152 40% 1 01.05.2027 -
Omar El Hilali Espanyol Activo 145 / 154 40% 1 01.05.2027 -
Andrés Martín Racing Santander Perdido 144 / 132 40% 4 27.04.2027 -
Francisco Conceição Köln Activo 151 / 156 40% 3 12.04.2027 -
Yeremy Pino Crystal Palace Activo 156 / 151 40% 3 11.04.2027 -
Osame Sahraoui LOSC Lille Activo 141 / 142 40% 1 06.04.2027 -
Pau Víctor Braga Activo 135 / 140 40% 1 04.04.2027 -
Takefusa Kubo VfB Stuttgart Activo 158 / 160 40% 2 31.03.2027 -
Geny Sporting CP Activo 148 / 148 40% 2 31.03.2027 -
Mikel Jauregizar Athletic Bilbao Activo 159 / 159 40% 3 21.03.2027 -
Alfon Sevilla Activo 145 / 136 40% 1 10.03.2027 -
Petter Nosa Dahl Rapid Wien Activo 124 / 120 40% 2 25.12.2026 -
Carlos Álvarez Club America Activo 146 / 146 40% 1 25.12.2026 -
Oihan Sancet Athletic Bilbao Activo 153 / 157 40% 3 20.12.2026 -
Christantus Uche Getafe Activo 132 / 138 40% 1 20.12.2026 -
Sota Kitano Red Bull Salzburg Activo 130 / 118 40% 2 16.12.2026 -
Yorbe Vertessen Red Bull Salzburg Activo 127 / 127 40% 2 15.12.2026 -
Metinho Basel Activo 126 / 127 40% 2 10.12.2026 -
João Pedro Chelsea Activo 146 / 154 40% 1 10.12.2026 -
Moisés Caicedo Chelsea Activo 161 / 165 40% 2 07.12.2026 -
Carlos Forbs Club Brugge Activo 142 / 137 40% 1 27.11.2026 -
Oswin Appollis Orlando Pirates Activo 125 / 120 40% 1 20.11.2026 -
Mattia Zanotti Young Boys Activo 121 / 128 40% 1 09.11.2026 -
Matthias Seidl Rapid Wien Activo 122 / 123 40% 1 31.10.2026 -
Amadou Onana Aston Villa Activo 148 / 149 40% 1 26.10.2026 -
Michael Olise Bayern Munich Activo 181 / 180 40% 1 23.10.2026 -
Maurits Kjærgaard Red Bull Salzburg Activo 121 / 131 40% 1 20.10.2026 -
Felix Nmecha Borussia Dortmund Activo 152 / 166 40% 1 04.08.2026 -
Frenkie de Jong Barcelona Activo 156 / 167 40% 1 01.08.2026 -
Cody Gakpo Liverpool Activo 153 / 161 40% 1 01.08.2026 -